When you browse on this site, cookies collect data to enhance your experience and personalize the content and advertising you see.
Visit our Privacy Policy to learn more. By continuing to use the site, you agree to this use of cookies and data.

Hourly Weather Araruna

Today, 5 August, Wednesday

Time Temperature Precipitation Wind Pressure Humidity
00:00 +19°C° 0 mm 5 mps 720 mmHg 86%
01:00 +19°C° 0 mm 5 mps 720 mmHg 86%
02:00 +19°C° 0 mm 5 mps 719 mmHg 87%
03:00 +19°C° 0 mm 5 mps 719 mmHg 88%
04:00 +19°C° 0 mm 5 mps 718 mmHg 89%
05:00 +19°C° 0 mm 5 mps 718 mmHg 88%
06:00 +19°C° 0 mm 5 mps 718 mmHg 88%
07:00 +19°C° 0 mm 5 mps 718 mmHg 88%
08:00 +21°C° 0 mm 6 mps 719 mmHg 78%
09:00 +23°C° 0 mm 7 mps 720 mmHg 69%
10:00 +26°C° 0 mm 8 mps 720 mmHg 59%
11:00 +27°C° 0 mm 8 mps 720 mmHg 55%
12:00 +28°C° 0 mm 8 mps 720 mmHg 50%
13:00 +29°C° 0 mm 8 mps 720 mmHg 45%
14:00 +28°C° 0 mm 8 mps 719 mmHg 46%
15:00 +28°C° 0 mm 8 mps 718 mmHg 46%
16:00 +28°C° 0 mm 8 mps 718 mmHg 46%
17:00 +26°C° 0 mm 7 mps 718 mmHg 56%
18:00 +23°C° 0 mm 6 mps 718 mmHg 66%
19:00 +21°C° 0 mm 5 mps 719 mmHg 77%
20:00 +20°C° 0 mm 5 mps 719 mmHg 79%
21:00 +20°C° 0 mm 5 mps 719 mmHg 82%
22:00 +19°C° 0 mm 5 mps 719 mmHg 84%
23:00 +19°C° 0 mm 5 mps 719 mmHg 86%

Tomorrow, 6 August, Thursday

Time Temperature Precipitation Wind Pressure Humidity
00:00 +17°C° 0 mm 5 mps 719 mmHg 88%
01:00 +17°C° 0 mm 5 mps 719 mmHg 89%
02:00 +17°C° 0 mm 5 mps 719 mmHg 89%
03:00 +17°C° 0 mm 5 mps 718 mmHg 90%
04:00 +17°C° 0 mm 5 mps 718 mmHg 90%
05:00 +17°C° 0 mm 5 mps 718 mmHg 89%
06:00 +17°C° 0 mm 5 mps 718 mmHg 89%
07:00 +17°C° 0 mm 5 mps 718 mmHg 89%
08:00 +20°C° 0 mm 6 mps 719 mmHg 79%
09:00 +23°C° 0 mm 7 mps 719 mmHg 69%
10:00 +26°C° 0 mm 7 mps 720 mmHg 59%
11:00 +27°C° 0 mm 7 mps 720 mmHg 55%
12:00 +28°C° 0 mm 7 mps 720 mmHg 50%
13:00 +29°C° 0 mm 7 mps 719 mmHg 46%
14:00 +29°C° 0 mm 7 mps 719 mmHg 47%
15:00 +28°C° 0 mm 7 mps 718 mmHg 48%
16:00 +28°C° 0 mm 7 mps 718 mmHg 49%
17:00 +26°C° 0 mm 6 mps 718 mmHg 59%
18:00 +23°C° 0 mm 6 mps 718 mmHg 68%
19:00 +21°C° 0 mm 5 mps 718 mmHg 78%
20:00 +21°C° 0 mm 5 mps 719 mmHg 82%
21:00 +20°C° 0 mm 5 mps 719 mmHg 87%
22:00 +19°C° 0 mm 6 mps 719 mmHg 91%
23:00 +19°C° 0 mm 6 mps 719 mmHg 88%

Day after tomorrow, 7 August, Friday

Time Temperature Precipitation Wind Pressure Humidity
00:00 +19°C° 0 mm 6 mps 719 mmHg 86%
01:00 +19°C° 0 mm 6 mps 719 mmHg 84%
02:00 +19°C° 0 mm 5 mps 719 mmHg 85%
03:00 +17°C° 0 mm 5 mps 718 mmHg 87%
04:00 +17°C° 0 mm 5 mps 718 mmHg 89%
05:00 +18°C° 0 mm 4 mps 718 mmHg 89%
06:00 +18°C° 0 mm 4 mps 718 mmHg 89%
07:00 +18°C° 0 mm 4 mps 718 mmHg 88%
08:00 +20°C° 0 mm 5 mps 719 mmHg 79%
09:00 +22°C° 0 mm 6 mps 720 mmHg 69%
10:00 +26°C° 0 mm 7 mps 720 mmHg 59%
11:00 +27°C° 0 mm 7 mps 720 mmHg 56%
12:00 +28°C° 0 mm 7 mps 720 mmHg 52%
13:00 +29°C° 0 mm 8 mps 719 mmHg 49%
14:00 +29°C° 0 mm 8 mps 719 mmHg 51%
15:00 +28°C° 0 mm 7 mps 718 mmHg 53%
16:00 +28°C° 0 mm 7 mps 718 mmHg 55%
17:00 +26°C° 0 mm 7 mps 718 mmHg 65%
18:00 +23°C° 0 mm 6 mps 718 mmHg 75%
19:00 +21°C° 0 mm 5 mps 719 mmHg 85%
20:00 +20°C° 0 mm 5 mps 719 mmHg 86%
21:00 +19°C° 0 mm 4 mps 719 mmHg 87%
22:00 +19°C° 0 mm 4 mps 720 mmHg 88%
23:00 +18°C° 0 mm 4 mps 719 mmHg 89%

8 August, Saturday

Time Temperature Precipitation Wind Pressure Humidity
00:00 +18°C° 0 mm 4 mps 719 mmHg 89%
01:00 +18°C° 0 mm 4 mps 719 mmHg 90%
02:00 +18°C° 0 mm 4 mps 718 mmHg 91%
03:00 +18°C° 0 mm 4 mps 718 mmHg 92%
04:00 +18°C° 0 mm 4 mps 718 mmHg 93%
05:00 +18°C° 0 mm 4 mps 718 mmHg 94%
06:00 +18°C° 0 mm 4 mps 718 mmHg 94%
07:00 +18°C° 0 mm 4 mps 719 mmHg 94%
08:00 +21°C° 0 mm 4 mps 719 mmHg 83%
09:00 +23°C° 0 mm 5 mps 720 mmHg 71%
10:00 +26°C° 0 mm 6 mps 721 mmHg 59%
11:00 +27°C° 0 mm 6 mps 720 mmHg 57%
12:00 +28°C° 0 mm 6 mps 720 mmHg 54%
13:00 +29°C° 0 mm 6 mps 719 mmHg 52%
14:00 +29°C° 0 mm 6 mps 719 mmHg 53%
15:00 +29°C° 0 mm 6 mps 718 mmHg 53%
16:00 +29°C° 0 mm 6 mps 718 mmHg 54%
17:00 +27°C° 0 mm 5 mps 718 mmHg 65%
18:00 +25°C° 0 mm 5 mps 718 mmHg 75%
19:00 +22°C° 0 mm 4 mps 718 mmHg 86%
20:00 +21°C° 0 mm 4 mps 719 mmHg 89%
21:00 +20°C° 0 mm 4 mps 719 mmHg 92%
22:00 +20°C° 0 mm 4 mps 720 mmHg 95%
23:00 +20°C° 0 mm 4 mps 719 mmHg 95%

9 August, Sunday

Time Temperature Precipitation Wind Pressure Humidity
00:00 +20°C° 0 mm 4 mps 719 mmHg 95%
01:00 +19°C° 0 mm 4 mps 719 mmHg 95%
02:00 +19°C° 0 mm 4 mps 719 mmHg 95%
03:00 +19°C° 0 mm 4 mps 718 mmHg 95%
04:00 +19°C° 0 mm 4 mps 718 mmHg 95%
05:00 +19°C° 0 mm 4 mps 718 mmHg 94%
06:00 +19°C° 0 mm 4 mps 718 mmHg 93%
07:00 +20°C° 0 mm 4 mps 718 mmHg 92%
08:00 +21°C° 0 mm 5 mps 719 mmHg 83%
09:00 +23°C° 0 mm 6 mps 719 mmHg 74%
10:00 +26°C° 0 mm 6 mps 720 mmHg 64%
11:00 +27°C° 0.1 mm 6 mps 720 mmHg 60%
12:00 +29°C° 0.1 mm 7 mps 719 mmHg 56%
13:00 +30°C° 0.1 mm 7 mps 719 mmHg 52%
14:00 +29°C° 0.1 mm 7 mps 718 mmHg 54%
15:00 +29°C° 0.1 mm 7 mps 718 mmHg 56%
16:00 +28°C° 0.1 mm 6 mps 717 mmHg 59%
17:00 +26°C° 0.1 mm 6 mps 717 mmHg 68%
18:00 +23°C° 0.1 mm 5 mps 718 mmHg 78%
19:00 +21°C° 0.1 mm 4 mps 718 mmHg 88%
20:00 +21°C° 0.1 mm 4 mps 718 mmHg 90%
21:00 +20°C° 0.1 mm 4 mps 719 mmHg 92%
22:00 +20°C° 0.1 mm 4 mps 719 mmHg 94%
23:00 +20°C° 0 mm 4 mps 719 mmHg 93%

10 August, Monday

Time Temperature Precipitation Wind Pressure Humidity
00:00 +20°C° 0 mm 4 mps 718 mmHg 93%
01:00 +19°C° 0 mm 4 mps 718 mmHg 93%
02:00 +19°C° 0 mm 4 mps 718 mmHg 93%
03:00 +19°C° 0 mm 4 mps 717 mmHg 94%
04:00 +18°C° 0 mm 4 mps 717 mmHg 94%
05:00 +19°C° 0 mm 4 mps 717 mmHg 94%
06:00 +19°C° 0 mm 4 mps 717 mmHg 93%
07:00 +19°C° 0 mm 4 mps 717 mmHg 93%
08:00 +21°C° 0 mm 5 mps 718 mmHg 82%
09:00 +23°C° 0 mm 6 mps 719 mmHg 72%
10:00 +26°C° 0 mm 6 mps 719 mmHg 61%
11:00 +27°C° 0 mm 6 mps 719 mmHg 56%
12:00 +29°C° 0 mm 6 mps 719 mmHg 51%
13:00 +30°C° 0 mm 6 mps 718 mmHg 46%
14:00 +29°C° 0 mm 6 mps 718 mmHg 49%
15:00 +29°C° 0 mm 6 mps 717 mmHg 51%
16:00 +28°C° 0 mm 6 mps 717 mmHg 54%
17:00 +26°C° 0 mm 6 mps 717 mmHg 63%
18:00 +23°C° 0 mm 5 mps 717 mmHg 72%
19:00 +21°C° 0 mm 4 mps 717 mmHg 81%
20:00 +21°C° 0 mm 4 mps 717 mmHg 83%
21:00 +20°C° 0 mm 4 mps 717 mmHg 85%
22:00 +19°C° 0 mm 5 mps 718 mmHg 88%
23:00 +19°C° 0 mm 4 mps 717 mmHg 89%
Show more